Theta_e
342 341 337 334 331 330 330 331 332 333 332 331 331 330 328 323 319 317 315 313 316 327 329 329 329 328 324 323 324 325 326 328 328 329 328 327 325 329 328 326 327 331 328
341 341 338 335 332 331 330 330 332 334 334 332 332 328 322 317 314 310 313 318 325 329 329 326 320 318 319 321 322 324 325 325 327 328 327 326 326 328 331 329 327 328 327
341 340 338 335 333 332 331 331 333 335 333 332 328 322 318 315 311 311 312 318 325 325 320 314 310 309 309 309 310 313 317 321 324 326 327 329 329 328 330 329 327 327 326
341 341 338 336 334 333 332 332 335 334 332 329 324 319 317 314 311 310 311 312 312 314 311 308 307 307 307 307 307 308 308 309 314 322 326 328 330 328 329 329 324 324 326
341 340 338 336 335 333 333 334 335 333 330 326 320 318 317 314 310 309 309 309 310 313 314 313 312 309 309 313 314 314 315 314 313 315 322 326 329 329 327 327 327 327 326
340 339 338 337 335 334 334 336 334 330 328 322 319 319 316 314 309 308 308 313 316 316 315 315 314 313 313 311 310 310 313 315 318 321 323 326 327 326 330 327 325 324 325
339 338 337 336 335 335 336 334 330 329 326 320 318 318 316 312 309 312 314 318 316 315 315 315 314 314 314 315 314 309 308 311 318 322 323 321 323 324 327 328 323 323 324
338 338 337 336 336 336 333 331 330 327 320 317 318 316 314 312 319 318 319 319 317 317 316 316 316 315 315 316 316 315 314 312 310 313 315 317 318 318 322 326 322 319 317
338 338 338 337 336 333 331 331 329 323 318 317 317 315 313 320 321 320 320 319 318 318 317 316 316 316 316 316 316 316 315 315 315 314 312 313 312 315 318 321 323 320 315
338 337 336 335 334 332 333 331 325 320 317 317 320 317 318 321 322 321 320 319 318 317 317 317 317 317 316 316 317 317 316 315 316 316 315 312 311 311 318 314 315 317 316
337 336 338 335 334 334 331 327 322 318 317 318 322 321 322 323 323 322 320 319 318 317 317 317 318 318 317 317 317 316 317 317 315 317 317 317 314 312 315 315 314 314 313
337 336 337 340 336 333 329 323 320 318 318 322 323 322 324 324 324 322 321 319 317 317 317 318 318 318 318 317 315 314 314 315 316 317 317 317 317 316 314 317 317 318 318
336 336 337 337 331 328 324 321 319 319 321 325 325 324 325 325 325 321 319 317 318 318 318 318 318 317 316 315 313 312 312 313 315 315 316 316 317 317 316 315 314 315 317
333 332 331 329 327 325 322 320 320 321 324 326 327 326 326 327 323 319 318 319 318 317 315 314 313 313 313 312 311 311 311 310 309 309 310 311 313 314 315 315 315 316 316
331 329 330 328 325 322 322 321 322 325 326 327 327 327 326 325 323 319 319 318 315 312 312 311 311 311 311 310 310 309 307 306 305 307 307 306 307 308 309 311 313 315 316
328 328 328 326 323 323 323 324 324 326 327 327 327 326 327 325 323 320 318 313 311 311 311 311 311 310 309 308 307 306 304 304 304 304 306 304 303 304 306 308 309 310 311
327 328 328 327 326 324 327 326 326 327 327 327 327 326 326 321 320 317 312 312 312 311 310 310 309 307 306 306 305 305 304 304 304 301 303 304 304 303 304 304 305 306 306
327 329 328 328 327 326 323 322 323 324 323 322 322 318 318 315 314 313 311 311 309 308 307 307 306 306 306 305 304 304 304 303 303 304 304 303 303 303 303 304 304 303 303
327 329 328 327 324 324 324 322 323 319 318 317 316 314 312 311 311 310 309 307 306 306 305 304 302 302 304 302 301 302 300 301 303 305 304 303 302 301 301 301 300 300 300
326 327 327 325 324 324 324 322 317 314 313 312 311 311 310 309 308 307 305 304 304 303 302 300 300 301 301 301 299 300 299 300 304 304 302 301 301 300 299 299 299 298 297
326 326 325 325 324 324 318 314 315 315 313 311 310 309 309 307 305 304 303 302 301 301 301 301 300 300 300 300 300 299 299 302 303 301 300 300 299 298 298 297 297 296 296
326 326 325 325 321 317 318 317 315 313 312 310 308 307 305 303 302 301 301 303 303 302 300 299 299 300 300 300 298 298 299 298 299 300 298 299 298 297 297 296 296 295 295
323 323 316 315 315 316 315 313 312 311 310 308 305 304 303 303 304 304 303 303 303 302 301 299 299 299 299 299 299 297 298 298 298 297 297 296 297 296 295 294 294 294 295
313 314 314 312 311 310 310 309 309 310 310 307 304 303 304 304 303 302 302 301 302 299 298 298 297 296 295 294 294 296 295 295 295 295 294 295 294 293 293 293 293 293 294
310 309 309 309 309 309 309 309 309 308 307 305 304 304 304 304 303 302 301 301 301 298 296 294 294 293 292 292 292 292 292 292 292 294 292 292 291 291 291 290 291 292 291
308 309 309 309 307 307 306 305 304 304 304 304 304 304 304 303 303 302 301 300 298 296 294 293 291 292 292 291 290 290 290 290 290 290 291 290 289 289 288 289 289 289 289
Wind_Speed
19 21 24 24 25 25 25 24 23 21 20 19 18 16 14 13 12 12 11 12 13 14 14 13 13 12 10 9 9 9 8 7 6 6 5 7 8 9 11 11 13 12 11
25 20 24 25 25 25 24 23 22 20 18 18 16 14 13 13 11 11 13 15 14 14 15 15 14 13 13 12 11 10 10 9 8 7 6 7 8 8 10 11 12 12 10
24 21 22 23 25 24 24 22 20 18 17 16 14 13 13 12 12 13 14 15 15 15 15 14 14 14 14 13 13 13 12 12 11 10 10 8 7 6 9 10 11 11 9
24 21 22 23 23 23 22 21 19 18 16 14 13 13 12 12 12 14 14 14 14 14 14 14 14 15 15 15 15 15 14 13 12 11 10 11 9 8 9 10 11 11 8
25 25 24 23 22 23 21 19 17 16 15 13 13 13 12 12 13 14 14 13 14 13 13 13 14 14 16 16 15 15 16 15 14 12 11 11 9 9 10 13 13 10 6
23 23 23 23 23 22 20 18 16 15 14 13 12 12 12 12 13 13 13 13 15 15 16 16 17 17 17 17 18 15 14 15 14 13 12 12 10 10 12 13 16 13 8
22 21 22 22 21 20 18 16 15 14 13 12 11 11 11 13 13 12 13 14 16 17 17 18 17 17 16 17 18 19 17 15 14 12 12 13 11 10 11 12 13 12 11
23 22 20 20 19 18 17 16 14 13 13 11 11 11 13 13 13 13 12 13 13 15 16 16 16 16 16 16 17 18 18 19 18 13 12 12 12 11 11 10 11 13 12
19 20 19 19 18 17 16 15 14 13 12 11 11 12 14 13 13 12 11 11 11 10 12 13 14 14 14 13 14 15 15 16 17 18 16 12 13 14 11 11 11 11 14
16 16 17 16 16 16 15 13 13 12 11 12 12 13 15 13 11 9 8 7 7 7 7 7 7 8 9 10 11 12 13 13 14 14 14 14 14 13 13 12 12 12 13
18 17 14 16 16 16 15 14 12 11 11 11 11 12 11 10 9 7 5 4 4 4 4 4 4 5 6 8 10 11 11 11 13 14 13 14 15 16 15 14 14 13 13
16 17 16 16 17 15 13 13 12 11 11 12 10 10 8 7 5 4 2 2 2 2 4 5 5 6 7 9 11 12 13 14 13 13 12 15 16 16 15 15 16 17 16
14 14 19 17 15 13 12 12 10 9 10 10 9 8 6 4 3 2 2 2 3 4 5 7 6 8 10 11 11 13 13 13 12 12 12 14 14 15 15 15 15 15 15
16 17 18 15 13 11 10 8 8 8 8 5 5 5 5 4 3 3 2 1 2 4 6 8 9 11 12 11 13 12 10 9 11 11 12 13 13 13 14 15 15 15 15
16 15 14 13 11 10 7 7 6 6 5 4 4 5 5 3 2 2 1 1 3 5 8 9 10 10 8 9 9 8 8 9 11 12 13 15 15 15 15 14 14 15 16
12 13 12 12 10 9 6 3 3 6 8 6 4 5 7 4 3 2 2 2 4 8 10 11 9 6 6 5 5 6 8 11 12 13 12 13 14 15 15 15 16 16 16
10 11 13 13 11 10 4 7 3 8 11 8 10 8 7 3 2 3 2 4 7 9 9 6 5 5 4 5 7 8 9 12 11 14 10 9 10 13 13 15 17 17 17
10 12 15 15 15 16 11 13 13 8 6 3 3 5 6 5 4 2 4 5 6 4 4 5 5 5 5 8 10 10 11 13 11 5 3 5 7 9 12 14 16 19 22
11 15 16 18 18 14 6 12 7 4 5 7 8 7 5 3 1 2 3 3 3 4 6 6 6 6 6 9 12 11 15 15 10 2 2 5 8 9 11 16 20 22 24
13 16 19 18 12 8 6 6 9 10 8 7 7 5 3 2 3 4 3 4 5 6 6 7 7 6 6 10 13 11 15 10 4 1 6 7 7 10 12 15 18 20 27
19 19 19 15 12 10 18 17 13 8 6 6 4 2 1 2 3 4 5 7 9 11 11 12 12 10 8 12 11 14 12 6 4 5 8 9 9 12 13 15 18 22 23
17 16 15 15 18 20 18 14 7 8 6 6 3 2 1 3 5 8 9 12 14 12 11 9 6 7 7 8 10 12 5 8 9 10 15 11 14 13 15 20 22 22 22
14 17 19 20 19 15 9 8 7 7 7 3 1 1 4 9 15 16 16 14 15 12 6 3 6 8 10 8 7 6 5 5 17 10 16 18 15 19 23 24 23 23 22
16 18 17 17 13 10 7 4 4 3 2 2 2 4 6 10 12 12 14 13 15 6 1 3 5 7 8 10 9 5 8 12 7 9 14 17 18 21 21 21 20 21 22
22 19 16 12 11 8 8 9 10 10 9 6 5 6 9 12 15 16 16 17 13 4 1 2 3 5 6 6 6 8 8 10 10 9 12 17 19 18 16 19 15 17 20
14 16 18 19 21 20 19 18 17 15 11 8 8 11 12 17 20 21 19 15 6 4 1 1 4 6 7 4 4 5 7 9 11 12 10 15 19 22 21 20 18 18 22
Wind_Direction
159 161 160 151 143 139 135 134 130 126 124 121 117 114 107 100 95 92 88 83 77 74 73 73 72 70 69 64 54 47 35 23 15 1 356 0 2 6 360 12 19 25 28
153 161 161 151 147 143 141 139 134 132 128 124 120 114 110 105 102 96 90 86 83 78 73 68 68 65 60 54 45 40 32 24 10 351 349 354 1 6 3 6 10 9 14
153 156 157 156 150 147 146 144 140 135 133 129 124 117 111 108 101 99 94 88 81 74 69 65 62 58 54 49 43 36 27 13 10 3 359 359 3 12 2 360 355 352 3
153 155 158 160 155 153 151 147 142 139 136 131 123 118 115 107 103 97 92 87 80 72 65 58 54 50 46 41 38 32 31 20 11 8 12 7 7 14 12 3 355 347 356
159 161 160 162 160 157 153 149 144 142 138 129 127 126 121 113 109 102 94 84 75 69 66 63 59 55 51 42 35 26 22 22 17 17 15 12 12 5 5 5 11 9 15
154 161 163 165 161 158 155 152 147 145 142 138 136 130 121 116 106 99 89 81 77 69 69 66 66 67 55 45 37 28 20 21 23 24 20 19 26 15 15 15 25 23 18
154 162 165 164 161 159 157 153 151 150 148 140 134 127 120 113 105 98 95 91 85 80 76 75 72 67 60 49 43 39 33 24 26 23 19 18 9 3 6 13 17 20 10
157 163 163 163 162 161 161 158 155 155 150 142 138 131 126 113 106 103 101 95 89 82 76 71 68 64 57 51 45 39 35 32 31 22 9 6 1 353 353 2 8 6 7
159 161 162 164 166 164 162 164 163 163 152 150 139 135 128 121 114 106 100 98 94 88 77 73 65 61 53 44 39 38 32 26 26 25 24 14 4 3 357 350 352 354 355
160 165 163 166 165 166 170 172 171 167 158 152 142 137 133 130 122 116 107 102 99 89 83 73 65 57 48 37 26 19 15 9 8 9 12 10 10 5 352 352 350 346 350
168 172 173 173 175 178 177 177 175 171 160 154 147 143 141 133 125 123 124 114 105 91 64 31 15 358 12 11 6 2 356 351 343 341 342 343 345 352 351 350 351 351 350
175 181 186 184 185 184 183 178 180 170 165 163 157 155 146 141 142 141 148 123 77 46 24 10 359 350 355 358 358 360 353 337 327 322 324 321 324 329 334 338 340 340 340
178 191 191 189 183 185 188 187 177 174 176 167 173 168 164 172 183 172 150 72 45 27 29 25 16 353 351 356 4 1 353 348 343 341 334 323 316 312 313 316 319 323 328
188 197 191 183 181 182 187 190 180 187 190 183 191 196 206 216 205 175 121 58 43 27 12 13 3 356 351 354 359 2 2 6 4 356 353 347 343 335 326 318 315 314 309
198 191 186 181 181 175 173 190 194 212 217 237 258 257 248 237 224 218 185 81 36 15 9 5 348 344 343 350 353 359 10 6 357 355 355 349 347 344 340 338 329 321 323
195 188 188 182 177 169 167 183 227 283 271 252 270 269 274 269 223 203 154 77 8 359 351 342 336 333 334 341 356 1 1 358 352 347 345 340 335 335 338 341 341 335 335
201 182 187 184 178 165 118 53 20 290 276 266 247 238 235 256 121 125 73 1 348 336 330 339 335 326 332 344 349 345 337 343 344 337 334 334 338 336 335 328 327 331 335
198 169 181 172 154 135 96 6 311 318 330 25 59 93 93 99 95 25 347 343 340 2 15 10 358 359 353 345 336 334 332 333 333 322 346 350 343 340 336 333 333 331 336
180 175 166 157 148 148 140 210 267 48 92 98 103 103 106 107 82 353 355 33 63 30 15 12 4 6 353 345 337 325 325 320 320 307 352 348 342 345 340 329 322 321 321
137 144 148 147 148 153 149 133 127 125 125 126 116 117 110 66 26 7 35 30 4 355 5 5 2 3 353 342 329 312 317 302 260 257 332 333 341 342 341 339 333 325 319
128 135 140 135 143 139 135 140 155 174 156 150 138 108 64 30 16 22 16 9 7 0 348 336 329 332 338 348 330 320 308 259 238 293 320 319 324 333 333 336 332 325 319
136 146 150 151 142 142 147 163 178 171 178 172 147 142 73 30 30 23 18 356 344 334 326 321 339 346 344 358 341 315 311 293 288 304 314 317 316 325 325 326 325 321 318
142 139 136 137 146 152 160 155 153 159 159 161 121 30 24 17 2 349 343 328 329 318 316 11 18 10 348 352 9 335 314 302 321 295 306 313 315 319 318 321 324 323 317
128 133 133 135 135 130 135 141 144 116 114 61 56 12 2 359 353 339 328 324 328 322 83 37 25 21 2 338 335 317 303 298 303 303 299 304 309 314 317 321 324 326 327
139 135 131 122 110 94 75 62 57 57 59 52 18 338 320 334 340 329 321 316 308 235 199 57 40 40 22 354 333 316 308 306 297 302 303 314 310 310 308 321 327 327 326
125 130 119 108 94 91 84 75 67 60 51 30 358 340 331 324 321 319 312 304 238 209 162 93 36 346 314 297 308 303 314 316 313 305 301 311 309 313 314 314 315 314 314